Location: Christian Community Church
(37.3838°N, 96.0804°W)
Time: 01:21:07
(UTC+00:00)

Daily predictions for brighter satellites

Satellite Brightness Start Highest point End
(mag) Time Altitude Azimuth Time Altitude Azimuth Time Altitude Azimuth
STARLINK-1211 4.2 02:00:10 10° SSW 02:03:57 35° SE 02:07:44 10° ENE
STARLINK-1163 3.6 02:00:21 10° NW 02:04:30 84° NE 02:08:38 10° SE
Cosmos 1844 3.8 02:00:52 10° S 02:06:20 57° ESE 02:11:55 10° NNE
STARLINK-1245 4.1 02:05:04 10° SSW 02:08:55 39° SE 02:12:48 10° ENE
STARLINK-1172 3.6 02:05:20 10° NW 02:09:30 87° SW 02:13:37 10° SE
Meteor 1-27 Rocket 4.1 02:05:34 10° SSW 02:11:29 77° W 02:17:22 10° N
H-2A R/B 2.4 02:06:49 10° S 02:11:44 67° W 02:16:48 10° NNW
STARLINK-1233 3.9 02:09:56 10° SSW 02:13:52 44° SE 02:17:49 10° ENE
STARLINK-1145 3.7 02:10:19 10° NW 02:14:27 79° SW 02:18:34 10° SE
CZ-2C R/B 3.7 02:09:24 10° S 02:14:37 64° W 02:20:10 10° NNW
Cosmos 1743 4.1 02:13:16 10° NNE 02:16:17 22° ENE 02:19:04 11° SE
NOSS 2-3 (D) 4.2 02:14:01 10° S 02:17:41 31° ESE 02:21:38 10° NE
STARLINK-1204 3.8 02:14:51 10° SSW 02:18:50 49° SE 02:22:50 10° ENE
STARLINK-1161 3.8 02:15:16 10° NW 02:19:23 71° SW 02:23:20 11° SE
Cosmos 1607 4.2 02:14:20 10° NNW 02:20:41 61° ENE 02:26:48 11° SE
Cosmos 1513 Rocket 4.5 02:17:35 10° N 02:23:40 72° E 02:29:46 10° SSE
STARLINK-1238 3.7 02:19:44 10° SSW 02:23:46 55° SE 02:27:49 10° NE
STARLINK-1160 3.9 02:20:15 10° NW 02:24:21 64° SW 02:28:07 12° SE
MOS 1 4.5 02:19:11 10° S 02:24:53 79° WSW 02:30:37 10° NNW
USA 229 DEB 3.6 02:21:22 10° SSW 02:27:48 88° SE 02:34:36 10° NNE
USA 229 3.6 02:21:29 10° SSW 02:27:56 88° ESE 02:34:42 10° NNE
STARLINK-1201 3.6 02:24:41 10° SW 02:28:45 62° SE 02:32:51 10° NE
STARLINK-1170 4.0 02:25:16 10° NW 02:29:20 57° SW 02:32:55 13° SSE
Cosmos 389 Rocket 2.7 02:26:31 10° SSE 02:29:47 45° E 02:33:07 10° NNE
Cosmos 1908 Rocket 4.1 02:26:42 10° N 02:30:56 42° E 02:34:36 13° SSE
Cosmos 1975 4.5 02:30:37 10° NNE 02:33:34 19° ENE 02:35:29 14° ESE
STARLINK-1206 3.5 02:29:37 10° SW 02:33:43 69° SE 02:37:50 10° NE
STARLINK-1150 4.2 02:30:17 10° WNW 02:34:18 51° SW 02:37:42 14° SSE
Cosmos 1464 Rocket 4.1 02:29:15 10° N 02:35:38 88° E 02:42:01 10° S
NOSS 3-1 (C) 3.5 02:30:37 10° SW 02:35:54 73° NW 02:41:59 10° NNE
NOSS 3-1 (A) 3.1 02:31:52 10° SSW 02:37:06 68° ESE 02:43:04 10° NE
Resurs 1-3 3.6 02:33:06 10° SSE 02:37:22 67° ENE 02:41:44 10° N
DMSP B5D2-2 4.2 02:32:44 10° NNE 02:38:03 85° WNW 02:43:19 10° SSW
Cosmos 2251 Rocket 3.7 02:33:10 10° NNW 02:38:23 73° WSW 02:43:35 10° S
STARLINK-1205 3.5 02:34:33 10° SW 02:38:41 77° SE 02:42:49 10° NE
STARLINK-1151 4.3 02:35:18 10° WNW 02:39:16 45° SW 02:42:30 14° SSE
Okean 1 3.5 02:35:26 10° S 02:39:22 54° E 02:43:19 10° NNE
Ariane Rocket 4.4 02:37:41 10° SSW 02:42:22 38° W 02:47:05 10° NNW
STARLINK-1218 3.5 02:39:31 10° SW 02:43:39 85° SE 02:47:48 10° NE
Cosmos 2242 Rocket 3.6 02:41:17 10° S 02:45:41 82° W 02:50:05 10° N
STARLINK-1155 4.4 02:42:37 10° NW 02:46:34 41° NE 02:49:22 17° E
NOSS 2-3 (C) 3.4 02:44:09 10° SSW 02:48:17 71° ESE 02:52:55 10° NE
STARLINK-1254 3.6 02:44:30 10° SW 02:48:37 87° NW 02:52:47 10° NE
Cosmos 1356 4.4 02:47:23 10° NNE 02:50:30 31° ENE 02:51:44 24° ESE
MetOp-A 4.3 02:45:17 10° S 02:50:37 73° WSW 02:55:59 10° NNW
CZ-2C R/B 4.4 02:47:00 10° N 02:51:22 55° WNW 02:55:46 10° SSW
STARLINK-1166 4.3 02:47:33 10° NW 02:51:34 45° NE 02:54:08 20° ESE
STARLINK-1231 3.7 02:49:30 10° SW 02:53:37 79° NW 02:57:46 10° NE
Cosmos 1833 Rocket 4.4 02:51:00 10° N 02:54:50 18° NE 02:57:56 12° E
STARLINK-1165 4.1 02:52:31 10° NW 02:56:33 50° NE 02:58:55 22° ESE
Cosmos 2056 Rocket 3.5 02:52:02 10° S 02:57:03 59° ESE 03:02:05 10° NNE
SEDSat Delta rocket 4.2 02:50:32 10° WSW 02:57:05 51° S 03:01:26 20° ESE
STARLINK-1232 3.9 02:54:30 10° SW 02:58:36 71° NW 03:02:44 10° NE
STARLINK-1169 4.0 02:57:28 10° NW 03:01:32 55° NE 03:03:42 25° ESE
CZ-2C R/B 3.4 02:56:09 10° N 03:01:37 57° WNW 03:07:06 10° SSW
STARLINK-1208 4.0 02:59:28 10° WSW 03:03:34 64° NW 03:07:41 10° NE
Cosmos 44 Rocket 3.3 02:59:27 10° NNW 03:04:22 86° WSW 03:07:23 24° SSE
Tsikada Rocket 4.0 03:00:10 10° S 03:06:24 88° W 03:12:36 10° N
STARLINK-1178 3.9 03:02:25 10° NW 03:06:31 60° NE 03:08:29 29° ESE
Cosmos 1515 3.6 03:05:25 21° S 03:07:51 71° E 03:11:40 10° NNE
STARLINK-1271 4.2 03:04:30 10° WSW 03:08:34 58° NW 03:12:40 10° NE
IGS 5A 4.2 03:10:01 28° ESE 03:11:20 36° ENE 03:15:09 10° N
STARLINK-1120 3.7 03:07:23 10° NW 03:11:31 67° NE 03:13:16 32° ESE
STARLINK-1154 4.4 03:09:31 10° WSW 03:13:34 53° NW 03:17:37 10° NE
Meteor 1-19 Rocket 4.1 03:08:18 10° S 03:13:49 87° E 03:19:33 10° N
Okean 3 3.9 03:13:52 33° SE 03:15:08 41° E 03:19:11 10° NNE
Terra 3.7 03:14:02 14° E 03:15:19 16° ENE 03:18:09 10° NNE
Cosmos 2278 Rocket 2.3 03:10:43 11° S 03:16:06 56° ESE 03:21:38 10° NNE
CREW DRAGON DEMO-1 DEB 4.2 03:13:32 10° NNW 03:16:20 30° NNE 03:17:09 26° ENE
STARLINK-1131 3.6 03:12:20 10° NW 03:16:29 74° NE 03:18:02 37° ESE
Lacrosse 5 4.2 03:14:25 10° N 03:17:14 15° NNE 03:20:02 10° ENE
STARLINK-1157 3.4 03:16:03 10° WNW 03:19:20 53° SW 03:19:58 44° S
STARLINK-1087 4.1 03:19:21 10° NNW 03:20:26 23° N 03:20:26 23° N
STARLINK-1190 3.5 03:17:16 10° NW 03:21:26 81° NE 03:22:47 41° SE
USA 245 3.3 03:21:31 42° ESE 03:22:22 53° ENE 03:25:36 10° N
Okean 1-7 3.8 03:19:34 10° SSW 03:23:43 50° W 03:27:54 10° N
Meteor 1-4 Rocket 2.4 03:23:36 35° SSW 03:24:57 82° W 03:28:25 10° N
Cosmos 2221 Rocket 3.8 03:24:22 37° SSE 03:25:46 53° E 03:30:11 10° NNE
STARLINK-1129 3.5 03:22:17 10° NW 03:26:27 89° ENE 03:27:36 46° SE
Hubble Space Telescope 2.3 03:24:21 10° SW 03:26:52 22° SSW 03:26:52 22° SSW
Cosmos 1452 Rocket 4.0 03:26:55 34° SE 03:28:03 38° E 03:32:54 10° NE
STARLINK-1134 3.5 03:27:17 10° NW 03:31:27 82° SW 03:32:25 51° SE
Resurs 01 Rocket 2.6 03:29:31 18° SSW 03:32:26 42° W 03:36:41 10° NNW
Cosmos 1420 Rocket 3.9 03:31:38 27° S 03:34:26 67° ESE 03:39:36 10° NNE
Cosmos 371 Rocket 3.6 03:34:23 41° ESE 03:34:58 43° ESE 03:39:33 10° NNE
Cosmos 407 Rocket 3.6 03:30:59 10° NNW 03:36:20 78° WSW 03:38:42 34° S
STARLINK-1135 3.6 03:32:14 10° NW 03:36:23 74° SW 03:37:10 55° SSE
STARLINK-1141 3.6 03:37:15 10° NW 03:41:22 66° SW 03:41:58 57° S
Sich 1 Rocket 3.6 03:37:59 10° N 03:42:35 85° W 03:44:00 45° S
ATLAS 3B CENTAUR R/B 3.9 03:34:28 10° SW 03:43:02 25° S 03:43:02 25° S
ERBS 2.3 03:42:53 66° W 03:43:13 75° NW 03:46:32 10° NE
STARLINK-1140 3.7 03:42:14 10° NW 03:46:18 59° SW 03:46:43 56° SSW
SPOT 1/Viking Rocket 3.5 03:45:02 44° SSE 03:46:42 78° ENE 03:51:52 10° N
Meteor 1-13 Rocket 4.1 03:46:32 40° SSE 03:48:32 69° E 03:54:08 10° NNE
SPOT 5 3.3 03:49:22 44° ESE 03:50:26 51° ENE 03:55:31 10° N
Meteor 2-4 Rocket 3.7 03:47:04 23° SSW 03:50:31 72° W 03:55:52 10° N
Cosmos 1544 3.9 03:47:14 10° NNW 03:50:43 44° W 03:51:24 39° SW
Cosmos 724 4.3 03:45:17 10° NNW 03:51:13 84° WSW 03:53:17 43° SSE
STARLINK-1156 3.9 03:47:15 10° WNW 03:51:17 53° SW 03:51:31 52° SSW
COSMOS 2406 3.1 03:46:40 10° NNW 03:52:28 86° ENE 03:54:17 46° SSE
Cosmos 2142 Rocket 4.4 03:46:41 10° N 03:52:50 82° E 03:55:11 41° SSE
STARLINK-1203 4.0 03:54:42 50° ENE 03:54:42 50° ENE 03:57:55 10° NE
STARLINK-1148 4.1 03:52:15 10° WNW 03:56:14 47° SW 03:56:17 47° SW
SL-4 R/B 3.9 03:54:50 10° NNE 03:55:53 13° NE 03:55:53 13° NE
Cosmos 1190 Rocket 4.4 03:53:25 10° NNW 03:58:31 58° WSW 04:00:11 39° SSW
Okean 2 Rocket 2.9 03:54:50 10° N 03:59:17 88° E 03:59:44 72° SSE
STARLINK-1241 4.3 04:01:57 42° NE 04:01:57 42° NE 04:04:46 10° NE
STARLINK-1158 4.3 03:57:17 10° WNW 04:01:05 42° SW 04:01:05 42° SW
STARLINK-1088 4.5 03:59:34 10° NW 04:03:30 40° NE 04:03:56 39° NE
STARLINK-1239 4.2 04:06:43 47° NE 04:06:43 47° NE 04:09:45 10° NE
Landsat 7 4.4 04:06:44 40° SW 04:07:59 50° W 04:12:38 10° NNW
STARLINK-1115 4.3 04:04:30 10° NW 04:08:29 44° NE 04:08:42 43° NE
Cosmos 1140 Rocket 4.0 04:04:23 10° NNW 04:09:24 50° WSW 04:10:47 40° SSW
STARLINK-1240 4.1 04:11:30 53° NE 04:11:30 53° NE 04:14:44 10° NE
ISS -0.9 04:10:26 10° N 04:11:56 12° NNE 04:13:01 11° NE
Cosmos 2151 Rocket 3.5 04:07:50 10° N 04:12:23 83° E 04:12:27 83° ESE
Cosmos 2297 4.1 04:12:54 44° E 04:12:54 44° E 04:17:53 10° NE
Nadezhda 4 Rocket 4.0 04:11:46 51° SE 04:12:47 58° E 04:18:46 10° NNE
STARLINK-1076 4.2 04:09:29 10° NW 04:13:30 48° NE 04:13:30 48° NE
BREEZE-M DEB 4.1 04:15:51 30° NE 04:15:51 30° NE 04:18:48 10° NE
STARLINK-1216 4.0 04:16:16 57° NNE 04:16:16 57° NNE 04:19:42 10° NE
Okean 1 Rocket 4.0 04:12:03 10° N 04:15:37 36° ENE 04:15:37 36° ENE
Aureole 1 Rocket 4.5 04:13:46 10° NW 04:17:55 37° WSW 04:19:15 32° SW
STARLINK-1092 4.2 04:14:25 10° NW 04:18:15 52° NNE 04:18:15 52° NNE
Cosmos 1850 Rocket 4.5 04:14:12 10° N 04:19:20 47° ENE 04:19:43 46° E
STARLINK-1237 4.0 04:21:01 60° N 04:21:01 60° N 04:24:40 10° NE
ERS-1 Rocket 3.1 04:20:26 59° SSW 04:21:09 67° WSW 04:26:10 10° NNW
Cosmos 304 Rocket 4.2 04:23:56 51° ENE 04:23:56 51° ENE 04:27:47 10° NNE
STARLINK-1080 4.1 04:19:24 10° NW 04:23:04 55° N 04:23:04 55° N
Cosmos 2279 Rocket 4.2 04:18:54 10° NNW 04:25:05 66° W 04:26:58 45° SSW
STARLINK-1202 4.1 04:25:48 59° NNW 04:25:48 59° NNW 04:29:38 10° NE
Cosmos 1954 Rocket 4.3 04:20:25 10° NNW 04:25:34 58° WSW 04:26:17 53° SW
Cosmos 332 Rocket 3.9 04:27:14 67° WSW 04:27:45 75° WNW 04:32:39 10° NNE
SeaSat 1 2.6 04:23:04 10° NNE 04:27:22 59° ENE 04:27:22 59° ENE
STARLINK-1090 4.2 04:24:21 10° NW 04:27:51 55° N 04:27:51 55° N
Cosmos 2082 Rocket 2.2 04:25:29 10° NNW 04:31:11 68° ENE 04:31:41 64° E
Cosmos 1437 Rocket 3.8 04:33:49 43° NW 04:33:49 43° NW 04:36:49 10° N
STARLINK-1089 4.3 04:29:19 10° NW 04:32:37 53° NNW 04:32:37 53° NNW
CARTOSAT-1 4.3 04:33:47 46° W 04:33:47 46° W 04:37:49 10° NNW
STARLINK-1246 4.4 04:35:20 49° NW 04:35:30 50° NW 04:39:33 10° NE
STARLINK-1107 4.4 04:34:17 10° NW 04:37:24 49° NW 04:37:24 49° NW
Cosmos 1833 Rocket 2.8 04:33:40 10° NNW 04:39:12 62° WSW 04:39:38 59° SW
Cosmos 2369 Rocket 3.9 04:44:15 19° ENE 04:44:15 19° ENE 04:46:35 10° NE
Meteor 1-15 Rocket 4.2 04:39:39 10° N 04:45:37 87° W 04:46:06 77° S
Cosmos 1066 Rocket 4.2 04:45:52 66° WSW 04:46:22 70° W 04:51:45 10° N
Cosmos 1331 Rocket 4.2 04:47:37 58° NE 04:47:37 58° NE 04:51:54 10° NNE
BREEZE-M DEB (TANK) 3.7 04:49:21 62° NE 04:49:21 62° NE 04:57:26 10° NE
Cosmos 1092 Rocket 3.8 04:50:48 72° ESE 04:51:02 73° E 04:57:09 10° N
Cosmos 1943 Rocket 3.2 04:53:30 33° ENE 04:53:30 33° ENE 04:57:03 10° NE
Terra 2.4 04:52:55 50° W 04:52:55 50° W 04:57:14 10° NNW
ATLAS 2AS CENTAUR R/B 4.3 04:58:04 23° E 04:58:04 23° E 05:02:33 10° ENE
Cosmos 1627 Rocket 4.5 04:59:54 67° E 04:59:56 67° E 05:06:14 10° NNE
Lacrosse 5 2.3 04:56:08 10° NW 05:00:44 57° NNE 05:00:44 57° NNE
H-2A ROCKET BODY 4.5 04:56:45 30° SSW 05:02:18 52° SSE 05:55:18 10° E
Cosmos 1461 4.3 05:08:20 36° N 05:08:20 36° N 05:11:11 10° NNE
Thor Agena Rocket 3.7 05:05:37 10° NNE 05:10:28 74° N 05:10:28 74° N
Cosmos 2195 Rocket 4.4 05:12:59 83° SSW 05:13:15 87° W 05:19:35 10° N
Cosmos 1428 Rocket 4.4 05:24:11 89° NE 05:24:11 89° NE 05:30:30 10° N
Cosmos 1975 Rocket 4.3 05:29:25 39° NNW 05:29:25 39° NNW 05:32:25 10° N
Cosmos 2026 Rocket 4.3 05:44:01 57° W 05:44:12 57° W 05:50:25 10° N
Cosmos 1553 Rocket 4.1 05:38:08 10° N 05:44:06 68° ENE 05:44:06 68° ENE
USA 215 3.1 05:55:04 79° E 05:55:25 82° NE 06:02:00 10° NW
Aureole 3 Rocket 4.1 05:55:06 10° N 06:00:51 79° W 06:00:51 79° W
Cosmos 2266 Rocket 4.1 06:14:24 68° NE 06:14:24 68° NE 06:19:49 10° N
Cosmos 2082 Rocket 4.4 06:11:36 10° WNW 06:13:32 14° W 06:13:32 14° W
NOSS 3-4 (A) 3.7 06:19:43 56° ENE 06:19:43 56° ENE 06:24:39 10° NE
NOSS 3-4 (C) 3.8 06:19:50 56° ENE 06:19:50 56° ENE 06:24:45 10° NE
Cosmos 968 Rocket 4.3 06:14:07 10° NNW 06:17:58 48° N 06:17:58 48° N
ALOS 2 4.5 06:26:19 26° NW 06:26:19 26° NW 06:28:25 10° NNW
Cosmos 2369 Rocket 3.0 06:26:00 43° WNW 06:26:00 43° WNW 06:31:15 10° N
ATLAS 3B R/B 4.4 06:22:43 10° NNW 06:28:24 27° NE 06:34:06 10° E
CENTAUR R/B 3.5 06:24:31 10° NNW 06:32:40 61° NE 06:36:06 38° ESE
Cosmos 1943 Rocket 3.7 06:34:59 25° WNW 06:35:44 25° WNW 06:40:19 10° N
Cosmos 2098 Rocket 4.1 06:36:16 73° E 06:36:16 73° E 06:43:19 10° N
Meteor 2-5 Rocket 4.4 06:42:41 46° ENE 06:42:41 46° ENE 06:47:06 10° NNE
Resurs 1-4 Rocket 4.3 06:41:06 10° ENE 06:43:26 14° E 06:43:26 14° E
ATLAS 2AS CENTAUR R/B 3.1 06:45:27 61° WSW 06:46:50 72° NW 06:54:51 10° NNE
Cosmos 2315 Rocket 4.0 06:45:43 10° N 06:51:33 79° NNE 06:51:33 79° NNE
NOSS 3-2 (A) 4.1 06:51:47 10° NW 06:59:30 61° WSW 06:59:36 61° WSW
Nadezhda 2 Rocket 4.4 07:03:32 79° NE 07:03:32 79° NE 07:09:19 10° N
COSMOS 2455 2.9 07:04:08 73° NNW 07:04:08 73° NNW 07:09:45 10° NNE
USA 238 DEB 4.2 06:59:44 10° NW 07:05:58 50° W 07:05:58 50° W
USA 238 4.2 06:59:49 10° NW 07:06:05 51° W 07:06:05 51° W
SL-4 R/B 3.4 07:11:24 44° N 07:11:24 44° N 07:15:04 10° NE
ATLAS CENTAUR R/B 2.9 07:21:34 35° N 07:21:34 35° N 07:24:16 10° NNE
Exosat Rocket 4.3 07:11:56 10° NNW 07:21:09 71° WSW 07:21:38 69° SW
Meteor 2-16 Rocket 4.5 07:24:07 69° ESE 07:24:16 69° E 07:30:22 10° NNE
FALCON 9 R/B 2.9 07:32:37 62° SW 07:33:52 75° S 07:53:11 10° E
Cosmos 2297 Rocket 4.4 07:33:26 10° N 07:37:45 22° NE 07:42:02 10° ESE
RESURS DK-1 3.7 07:42:47 38° N 07:42:47 38° N 07:45:29 10° NNE
Nadezhda 1 Rocket 4.3 07:36:54 10° N 07:43:01 61° E 07:44:15 51° SE
Cosmos 1777 Rocket 4.1 07:38:02 10° NNW 07:42:43 72° N 07:42:43 72° N
Cosmos 1356 Rocket 4.4 07:47:03 10° N 07:50:19 45° NE 07:50:19 45° NE
BREEZE-M R/B 3.7 07:51:53 53° N 07:51:53 53° N 07:54:47 10° NE
CZ-4C R/B 4.2 07:53:36 51° NNE 07:53:36 51° NNE 07:57:06 10° N
SL-16 R/B 2.7 07:56:22 45° SE 07:58:15 68° ENE 08:04:22 10° N
Cosmos 1867 4.3 07:55:22 10° NW 07:59:09 41° WNW 07:59:09 41° WNW
Timation 2 Rocket 3.8 07:56:39 10° NNW 08:02:58 90° NNE 08:04:07 62° SSE
Cosmos 1763 Rocket 4.4 08:03:51 36° ESE 08:04:24 37° E 08:09:04 10° NE
Meteor 2-1 Rocket 4.5 08:00:40 10° N 08:06:08 61° E 08:07:29 47° SE
Cosmos 1758 Rocket 4.4 08:08:01 40° E 08:08:03 40° E 08:12:08 10° NNE
Cosmos 1697 Rocket 3.8 08:10:09 30° SE 08:11:28 34° ESE 08:16:31 10° NE
Cosmos 1745 Rocket 4.0 08:11:24 58° WSW 08:12:06 62° W 08:18:11 10° N
Cosmos 2227 Rocket 3.6 08:08:26 10° N 08:13:39 36° ENE 08:18:49 10° SE
CZ-2D R/B 1.9 08:09:56 10° N 08:15:11 80° WNW 08:15:32 75° WSW
ADEOS II 3.1 08:11:29 10° NNE 08:16:22 38° E 08:17:53 31° SE
Cosmos 2084 4.3 08:18:25 44° NW 08:18:25 44° NW 08:22:33 10° NNE
ATLAS 3B R/B 2.6 08:12:45 10° NW 08:19:32 64° WSW 08:21:15 49° S
USA 81 3.9 08:19:00 72° S 08:19:35 88° E 08:24:53 10° N
CENTAUR R/B 3.9 08:15:51 10° NW 08:23:12 34° WSW 08:23:13 34° WSW
Resurs 1-4 Rocket 2.1 08:18:45 10° N 08:23:59 64° WNW 08:24:31 60° WSW
SJ 16-02 2.5 08:20:39 10° N 08:24:50 40° ENE 08:26:56 24° ESE
ARIANE 5 R/B 4.1 08:21:46 10° NE 08:26:02 27° E 08:28:16 20° SE
OceanSat 1 rocket 4.5 08:24:19 10° NNE 08:29:07 82° ESE 08:29:37 70° S
STARLINK-1338 4.3 08:31:19 42° N 08:31:19 42° N 08:33:58 10° NE
NPP 3.7 08:27:45 10° N 08:33:05 63° WNW 08:33:57 55° WSW
Cosmos 468 Rocket 3.8 08:32:55 65° SSW 08:33:42 89° ESE 08:38:51 10° NNE
STARLINK-1371 4.2 08:35:16 43° N 08:35:16 43° N 08:38:06 10° NE
Cosmos 1656 3.6 08:34:04 57° SW 08:35:14 78° WNW 08:40:55 10° NNE
STARLINK-1341 4.2 08:37:16 42° NNW 08:37:16 42° NNW 08:40:10 10° NE
Meteor 1-21 Rocket 4.2 08:36:33 55° SW 08:37:37 69° W 08:43:15 10° N
STARLINK-1374 4.2 08:39:18 42° NNW 08:39:18 42° NNW 08:42:17 10° NE
OAO 1 4.4 08:38:54 57° SW 08:39:45 66° S 08:45:13 10° ESE
STARLINK-1339 4.2 08:41:20 41° NNW 08:41:20 41° NNW 08:44:22 10° NE
Cosmos 1328 3.8 08:41:34 69° ESE 08:41:47 72° E 08:45:46 10° NNE
STARLINK-1377 4.2 08:43:24 39° NNW 08:43:24 39° NNW 08:46:31 10° NE
STARLINK-1353 4.2 08:44:23 38° NNW 08:44:23 38° NNW 08:47:23 10° NE
Cosmos 2369 3.9 08:43:42 41° S 08:45:36 65° ESE 08:51:12 10° NNE
STARLINK-1375 4.2 08:46:16 37° NNW 08:46:16 37° NNW 08:49:24 10° NNE
STARLINK-1350 4.3 08:48:32 35° NNW 08:48:32 35° NNW 08:51:41 10° NNE
Meteor 2-10 Rocket 3.4 08:43:37 10° NNW 08:48:53 78° W 08:50:25 46° S
STARLINK-1352 4.4 08:51:47 33° NW 08:51:56 34° NW 08:55:11 10° NNE
CZ-4C R/B 1.9 08:51:25 51° SSW 08:52:41 83° ESE 08:58:16 10° NE
STARLINK-1368 4.4 08:53:54 32° NW 08:54:10 32° NW 08:57:24 10° NNE
STARLINK-1369 4.4 08:54:56 31° NW 08:55:10 31° NW 08:58:18 10° NNE
Alouette 2 Rocket 3.7 08:50:57 10° NNW 08:56:42 77° W 08:57:53 48° S
Cosmos 1812 Rocket 4.4 08:56:19 10° NNW 09:00:07 34° W 09:00:07 34° W
CRYOSAT 2 4.3 08:57:13 10° N 09:02:09 90° ESE 09:04:09 37° S
Cosmos 1709 Rocket 4.4 09:00:26 35° WSW 09:02:16 44° WNW 09:08:06 10° N
Cosmos 1980 Rocket 2.8 09:00:48 25° S 09:03:49 50° ESE 09:09:14 10° NNE
Cosmos 1455 2.5 09:00:28 10° NNW 09:03:48 47° WNW 09:03:48 47° WNW
Cosmos 2219 3.3 09:01:29 10° NNW 09:06:59 54° WSW 09:09:29 31° SSW
Cosmos 1825 Rocket 3.8 09:06:52 43° WSW 09:07:27 46° W 09:11:37 10° N
CZ-2D R/B 4.2 09:07:56 10° NNE 09:11:57 49° E 09:14:20 23° SSE
Cosmos 540 Rocket 3.4 09:11:43 33° SSW 09:14:06 85° ESE 09:19:16 10° NNE
IRS-1C 4.1 09:10:39 10° N 09:15:58 70° WNW 09:18:32 31° SSW
Cosmos 1400 Rocket 3.3 09:15:35 10° N 09:19:40 61° E 09:23:30 11° SSE
Cosmos 990 Rocket 4.0 09:15:34 10° NNW 09:20:45 61° WSW 09:24:26 19° S
Cosmos 2297 Rocket 2.3 09:16:37 10° NNW 09:22:04 51° WSW 09:25:53 19° S
STARLINK-1212 2.6 09:19:10 10° NW 09:22:16 79° SW 09:25:21 10° SE
GP-B 4.0 09:18:39 10° NNW 09:22:32 31° W 09:23:22 29° WSW
STARLINK-1105 2.6 09:19:39 10° NW 09:22:43 77° SW 09:25:47 10° SE
Cosmos-2242 3.3 09:19:24 10° NNW 09:23:27 44° W 09:24:34 36° SW
STARLINK-1247 2.7 09:20:33 10° NW 09:23:40 76° SW 09:26:46 10° SE
Cosmos 1703 4.3 09:23:36 28° W 09:24:02 29° WNW 09:27:30 10° NNW
STARLINK-1227 2.6 09:21:00 10° NW 09:24:05 74° SW 09:27:09 10° SE
STARLINK-1226 2.7 09:21:52 10° NW 09:24:57 73° SW 09:28:03 10° SE
Cosmos 2221 4.2 09:21:31 10° NNE 09:25:27 33° ENE 09:29:23 10° SE
STARLINK-1215 2.7 09:22:48 10° NW 09:25:55 71° SW 09:29:00 10° SE
Cosmos 2082 3.7 09:20:25 10° NNW 09:26:06 83° ENE 09:31:43 10° SSE
Cosmos 2278 3.6 09:23:50 27° SSW 09:27:00 83° WNW 09:32:42 10° NNE
Cosmos 841 Rocket 3.5 09:24:51 29° SW 09:27:28 67° WNW 09:32:42 10° NNE
STARLINK-1217 2.7 09:24:35 10° NW 09:27:40 67° SW 09:30:46 10° SE
STARLINK-1229 2.7 09:25:30 10° NW 09:28:36 65° SW 09:31:41 10° SE
BREEZE M DEB (TANK) 3.7 09:26:12 10° NW 09:29:09 66° NE 09:37:58 10° ESE
STARLINK-1270 2.7 09:26:23 10° NW 09:29:28 64° SW 09:32:33 10° SE
COBE Rocket 3.9 09:25:02 10° SSE 09:29:53 86° E 09:34:56 10° N
Meteor 1-11 4.3 09:27:24 25° SSW 09:30:40 63° W 09:36:14 10° N
STARLINK-1189 2.8 09:28:12 10° NW 09:31:17 60° SW 09:34:21 10° SE
STARLINK-1188 2.8 09:29:07 10° NW 09:32:11 59° SW 09:35:15 10° SE
STARLINK-1187 3.0 09:30:15 10° WNW 09:33:14 47° SW 09:36:14 10° SSE
SL-08 R/B 3.3 09:30:05 19° S 09:33:25 60° WSW 09:38:03 10° NNW
STARLINK-1191 2.8 09:31:36 10° NW 09:34:37 54° SW 09:37:39 10° SSE
Cosmos 2322 Rocket 4.4 09:30:52 10° SE 09:34:53 20° E 09:38:53 10° NE
STARLINK-1221 2.9 09:32:27 10° WNW 09:35:29 53° SW 09:38:31 10° SSE
STARLINK-1231 4.3 09:32:15 10° NW 09:36:20 55° NE 09:40:24 10° ESE
STARLINK-1222 2.9 09:33:22 10° WNW 09:36:23 51° SW 09:39:24 10° SSE
STARLINK-1214 2.9 09:34:16 10° WNW 09:37:17 50° SW 09:40:17 10° SSE
STARLINK 1040 2.7 09:37:55 46° S 09:38:20 54° SE 09:40:52 10° NE
Cosmos 1315 Rocket 4.5 09:36:25 10° N 09:40:00 33° ENE 09:43:34 10° SE
CZ-2C R/B 2.9 09:37:11 10° NNE 09:40:52 68° E 09:43:43 16° S
STARLINK-1232 4.2 09:37:13 10° NW 09:41:20 61° NE 09:45:25 10° ESE
SL-16 R/B 4.0 09:41:27 16° WSW 09:42:19 16° W 09:46:03 10° NW
Cosmos 489 Rocket 4.4 09:37:57 19° SSW 09:42:32 80° WNW 09:48:48 10° NNE
Cosmos 2074 Rocket 4.2 09:39:16 20° SSW 09:43:40 56° W 09:49:51 10° N
STARLINK-1208 4.0 09:42:09 10° NW 09:46:17 68° NE 09:50:24 10° SE
H-2A R/B 2.0 09:42:36 10° SSE 09:46:52 85° W 09:51:16 10° NNW
STARLINK-1271 3.8 09:47:08 10° NW 09:51:17 75° NE 09:55:25 10° SE
STARLINK-26 4.2 09:50:48 18° S 09:52:51 37° SE 09:56:03 10° ENE
Cosmos 2058 3.4 09:50:21 10° S 09:54:26 61° E 09:58:35 10° NNE
USA 234 3.3 09:48:20 10° NE 09:54:54 85° SE 10:00:31 15° SW
Cosmos 1697 Rocket 3.8 09:51:53 17° WSW 09:55:23 31° WNW 10:00:23 10° N
Cosmos 2184 Rocket 4.4 09:51:04 17° SW 09:55:35 46° W 10:01:29 10° N
ADEOS II 3.4 09:51:39 10° NNW 09:55:49 24° WNW 09:58:49 15° WSW
STARLINK-1154 3.7 09:52:07 10° NW 09:56:16 83° NE 10:00:24 10° SE
Lacrosse 4 Rocket 1.5 09:52:18 10° NNW 09:56:37 82° ENE 10:00:47 10° SSE
Cosmos 2227 Rocket 3.0 09:52:44 10° NW 09:57:31 29° WSW 10:02:09 11° SSW
STARLINK-1197 3.6 09:57:05 10° NW 10:01:14 89° SW 10:05:22 10° SE
SL-16 R/B 3.2 09:56:18 10° S 10:01:37 43° ESE 10:06:57 10° NE
CZ-3 R/B 4.4 09:40:33 15° SW 10:01:43 34° S 10:10:42 10° ESE
Cosmos 1408 4.2 09:58:41 10° SSE 10:02:04 35° E 10:05:29 10° NNE
SJ 16-02 3.0 10:00:25 10° WNW 10:03:01 15° W 10:03:51 15° WSW
USA 129 2.8 10:02:08 10° N 10:02:55 18° NNW 10:02:55 18° NNW
STARLINK-42 4.0 10:01:10 15° SSW 10:03:25 36° SE 10:06:24 10° ENE
SL-24 DEB 4.2 09:59:43 10° N 10:04:21 80° W 10:08:56 10° S
ARIANE 5 R/B 3.5 10:00:42 10° N 10:05:05 31° WNW 10:08:36 14° WSW
CZ-4B R/B 3.4 10:02:34 10° SE 10:05:14 28° ENE 10:07:54 10° NNE
STARLINK-1198 3.5 10:02:02 10° NW 10:06:11 81° SW 10:10:19 10° SE
STARLINK-1283 4.4 10:04:15 12° SSW 10:07:15 37° SE 10:10:41 10° ENE
Iridium 2 4.3 10:04:47 10° NNW 10:08:15 37° W 10:11:29 11° SSW
STARLINK-1199 3.5 10:07:03 10° NW 10:11:12 73° SW 10:15:18 10° SE
NOSS 2-1 (C) 4.1 10:08:20 10° S 10:11:39 37° ESE 10:14:50 10° NE
MSX 3.8 10:06:32 10° NNE 10:12:19 84° WNW 10:18:03 10° SSW
STARLINK-43 3.8 10:09:35 15° WSW 10:12:27 52° NW 10:16:04 10° NE
ERS-2 3.3 10:12:06 13° SW 10:14:28 23° W 10:17:27 10° NW
Cosmos 1842 Rocket 3.8 10:10:24 10° NNW 10:14:45 50° W 10:19:02 10° SSW
STARLINK-1316 4.3 10:12:44 10° SSW 10:15:30 30° SE 10:18:16 10° ENE
NOSS 2-1 (D) 3.9 10:12:43 10° SSW 10:16:06 43° ESE 10:19:21 10° NE
STARLINK-1210 3.6 10:12:02 10° NW 10:16:09 65° SW 10:20:14 10° SE
STARLINK-1257 4.3 10:13:35 10° SSW 10:16:22 31° SE 10:19:09 10° ENE
STARLINK-1256 4.3 10:14:31 10° SSW 10:17:18 31° SE 10:20:07 10° ENE
Cosmos 1825 3.7 10:14:28 10° SSE 10:17:55 36° E 10:21:24 10° NNE
Cosmos 2298 Rocket 4.0 10:12:41 10° NNW 10:17:59 77° WSW 10:23:16 10° S
STARLINK-1213 4.2 10:15:21 10° SSW 10:18:10 32° SE 10:21:00 10° ENE
STARLINK-1263 4.2 10:16:14 10° SSW 10:19:03 33° SE 10:21:54 10° ENE
STARLINK-1259 4.1 10:17:07 10° SSW 10:19:57 34° SE 10:22:49 10° ENE
STARLINK-55 3.0 10:17:33 13° SW 10:20:20 73° SE 10:23:32 10° NE
STARLINK-1265 4.1 10:17:41 10° SSW 10:20:32 34° SE 10:23:24 10° ENE
STARLINK-1285 4.1 10:17:58 10° SSW 10:20:50 34° SE 10:23:42 10° ENE
IDEFIX/ARIANE 42P 3.0 10:15:59 10° N 10:20:59 45° WNW 10:25:58 10° SW
STARLINK-1219 3.6 10:17:02 10° NW 10:21:07 58° SW 10:25:10 10° SSE
STARLINK-1296 4.0 10:19:45 10° SSW 10:22:38 36° SE 10:25:32 10° ENE
STARLINK-1260 4.0 10:20:38 10° SSW 10:23:32 37° SE 10:26:27 10° ENE
STARLINK-1268 3.9 10:21:11 10° SSW 10:24:04 37° SE 10:26:58 10° ENE
STARLINK-1318 3.9 10:21:31 10° SSW 10:24:25 38° SE 10:27:21 10° ENE
STARLINK-1275 3.9 10:22:25 10° SSW 10:25:20 39° SE 10:28:16 10° ENE
STARLINK-1211 3.7 10:22:01 10° WNW 10:26:03 52° SW 10:30:03 10° SSE
STARLINK-1309 3.8 10:23:18 10° SSW 10:26:14 40° SE 10:29:11 10° ENE
STARLINK-1282 3.8 10:24:12 10° SSW 10:27:08 41° SE 10:30:06 10° ENE
STARLINK-1291 3.8 10:24:54 10° SSW 10:28:01 44° SE 10:31:09 10° ENE
STARLINK-1313 3.5 10:25:15 10° SSW 10:28:16 50° SE 10:31:18 10° ENE
STARLINK-1311 3.4 10:26:13 10° SSW 10:29:06 50° SE 10:32:01 10° ENE
STARLINK-1279 3.4 10:26:08 10° SSW 10:29:10 52° SE 10:32:12 10° ENE
STARLINK-1264 3.8 10:26:25 10° SSW 10:29:31 45° SE 10:32:37 10° ENE
STARLINK-1298 3.7 10:26:53 10° SSW 10:29:51 44° SE 10:32:50 10° ENE
STARLINK-28 2.9 10:27:14 10° SW 10:30:21 77° NW 10:33:34 10° NE
STARLINK-1293 3.6 10:27:45 10° SSW 10:30:43 45° SE 10:33:43 10° ENE
STARLINK-1267 3.7 10:27:52 10° SSW 10:30:58 47° SE 10:34:05 10° ENE
STARLINK-1245 3.9 10:27:03 10° WNW 10:31:02 46° SW 10:35:00 10° SSE
SL-8 Rocket 4.1 10:25:03 10° S 10:31:22 86° E 10:37:42 10° N
STARLINK-1272 3.6 10:29:16 10° SSW 10:32:23 49° SE 10:35:32 10° ENE
STARLINK-1255 3.6 10:29:32 10° SSW 10:32:31 48° SE 10:35:33 10° ENE
STARLINK-1207 3.6 10:30:41 10° SSW 10:33:50 51° SE 10:36:59 10° ENE
STARLINK-1266 3.5 10:32:11 10° SSW 10:35:21 53° SE 10:38:30 10° ENE
STARLINK-1233 4.0 10:32:04 10° WNW 10:35:59 42° SW 10:39:53 10° SSE
ADEOS 3.8 10:31:10 10° NNE 10:36:25 78° ESE 10:41:37 10° S
STARLINK-1284 3.4 10:33:41 10° SSW 10:36:52 56° SE 10:40:03 10° NE
STARLINK-1258 3.4 10:35:07 10° SW 10:38:18 58° SE 10:41:30 10° NE
Okean 3 Rocket 4.2 10:34:50 10° S 10:39:15 61° E 10:43:44 10° NNE
Cosmos 1076 Rocket 4.1 10:35:14 10° SSW 10:39:18 40° W 10:43:26 10° N
CZ-2C R/B 2.6 10:34:30 10° NNE 10:39:41 88° W 10:44:52 10° SSW
STARLINK-1292 3.3 10:36:38 10° SW 10:39:51 61° SE 10:43:03 10° NE
Cosmos 2360 Rocket 3.6 10:35:10 10° S 10:40:18 38° ESE 10:45:27 10° NE
STARLINK-1204 4.1 10:37:06 10° WNW 10:40:57 37° SW 10:44:46 10° SSE
Centaur D-1A AC-31 3.9 10:35:51 10° W 11:14:55 46° SSW 11:20:58 10° SE
